Location: Haulchin
(50.3172°N, 3.4360°E)
Time: 16:14:50
(UTC+00:00)

Cosmos 2292 - Pass Details

Date: 04 August 2024
Orbit: 393 x 1640 km, 83.0° (Epoch: 19 September)

Event Time Altitude Azimuth Distance (km) Brightness Sun altitude
Rises 19:50:28 0° 346° (NNW) 4,852 10.4 -4.4°
Reaches altitude 10° 19:54:28 10° 333° (NNW) 3,775 10.2 -4.9°
Maximum altitude 20:00:50 22° 290° (WNW) 2,737 9.5 -5.8°
Drops below altitude 10° 20:06:25 10° 244° (WSW) 3,238 9.1 -6.5°
Sets 20:09:35 0° 230° (SW) 3,998 9.4 -6.9°
